QPF
0.00 0.02 0.02 0.02 0.01 0.01 0.00 0.00 0.00 0.00 0.01 0.02 0.04 0.04 0.03 0.00 0.00 0.00 0.00 0.01 0.01 0.02 0.01 0.01 0.01 0.01 0.01 0.01 0.02 0.03 0.05 0.08 0.07 0.06 0.06 0.05 0.05 0.05 0.04 0.03 0.03 0.02 0.02 0.01
0.00 0.00 0.01 0.01 0.00 0.00 0.00 0.00 0.00 0.00 0.01 0.01 0.03 0.04 0.01 0.00 0.00 0.00 0.01 0.01 0.02 0.02 0.02 0.02 0.02 0.04 0.04 0.03 0.03 0.04 0.08 0.11 0.12 0.12 0.11 0.10 0.09 0.08 0.07 0.05 0.04 0.04 0.03 0.02
0.00 0.00 0.00 0.00 0.00 0.00 0.00 0.00 0.00 0.01 0.01 0.02 0.04 0.04 0.01 0.00 0.00 0.00 0.00 0.01 0.02 0.02 0.03 0.02 0.01 0.02 0.02 0.03 0.03 0.05 0.07 0.07 0.09 0.12 0.15 0.15 0.11 0.10 0.10 0.09 0.07 0.06 0.06 0.05
0.01 0.01 0.02 0.01 0.00 0.00 0.00 0.00 0.00 0.02 0.03 0.03 0.04 0.02 0.01 0.00 0.00 0.00 0.01 0.01 0.02 0.03 0.03 0.04 0.05 0.05 0.04 0.04 0.05 0.06 0.08 0.08 0.08 0.11 0.15 0.14 0.10 0.09 0.09 0.09 0.09 0.08 0.08 0.07
0.03 0.02 0.02 0.02 0.01 0.01 0.00 0.00 0.01 0.02 0.05 0.07 0.03 0.02 0.01 0.00 0.00 0.01 0.01 0.01 0.01 0.02 0.03 0.05 0.08 0.06 0.06 0.08 0.11 0.10 0.10 0.11 0.10 0.13 0.12 0.09 0.07 0.07 0.06 0.06 0.06 0.05 0.05 0.05
0.04 0.04 0.05 0.03 0.05 0.04 0.03 0.04 0.01 0.01 0.02 0.05 0.07 0.08 0.06 0.01 0.01 0.01 0.01 0.01 0.01 0.02 0.03 0.05 0.07 0.09 0.08 0.07 0.09 0.09 0.09 0.11 0.09 0.09 0.11 0.09 0.07 0.06 0.05 0.05 0.05 0.06 0.06 0.05
0.03 0.03 0.03 0.03 0.05 0.05 0.07 0.08 0.01 0.01 0.04 0.05 0.05 0.06 0.05 0.02 0.01 0.00 0.00 0.01 0.01 0.02 0.02 0.03 0.04 0.04 0.04 0.05 0.05 0.06 0.06 0.06 0.06 0.06 0.06 0.05 0.05 0.05 0.04 0.04 0.04 0.04 0.04 0.04
0.02 0.06 0.09 0.07 0.06 0.08 0.10 0.03 0.00 0.00 0.01 0.03 0.06 0.06 0.03 0.01 0.00 0.00 0.00 0.00 0.01 0.01 0.01 0.01 0.02 0.02 0.03 0.04 0.04 0.04 0.04 0.04 0.03 0.03 0.02 0.02 0.03 0.03 0.02 0.03 0.03 0.03 0.03 0.02
0.09 0.10 0.08 0.06 0.09 0.11 0.09 0.04 0.00 0.00 0.00 0.01 0.03 0.03 0.02 0.01 0.01 0.01 0.00 0.00 0.00 0.00 0.00 0.00 0.01 0.01 0.02 0.03 0.03 0.03 0.03 0.02 0.02 0.01 0.01 0.00 0.00 0.01 0.01 0.01 0.01 0.01 0.01 0.01
0.17 0.16 0.12 0.08 0.07 0.07 0.04 0.01 0.00 0.00 0.00 0.01 0.02 0.03 0.03 0.03 0.02 0.02 0.02 0.01 0.01 0.01 0.01 0.01 0.01 0.01 0.01 0.01 0.01 0.01 0.01 0.01 0.01 0.01 0.01 0.01 0.01 0.01 0.01 0.01 0.01 0.01 0.00 0.00
0.15 0.19 0.19 0.12 0.07 0.05 0.02 0.01 0.01 0.00 0.01 0.01 0.03 0.06 0.06 0.06 0.04 0.04 0.04 0.03 0.02 0.02 0.02 0.01 0.01 0.01 0.01 0.01 0.01 0.01 0.01 0.00 0.01 0.01 0.00 0.00 0.00 0.00 0.00 0.00 0.00 0.00 0.00 0.00
0.13 0.10 0.10 0.10 0.03 0.01 0.01 0.01 0.01 0.02 0.03 0.04 0.05 0.06 0.06 0.06 0.05 0.05 0.05 0.04 0.03 0.03 0.03 0.03 0.03 0.03 0.02 0.01 0.01 0.01 0.01 0.01 0.01 0.00 0.00 0.00 0.00 0.00 0.00 0.00 0.00 0.00 0.00 0.00
0.03 0.02 0.02 0.02 0.01 0.00 0.01 0.02 0.03 0.04 0.05 0.06 0.05 0.04 0.04 0.05 0.05 0.04 0.03 0.02 0.02 0.02 0.02 0.01 0.01 0.01 0.00 0.00 0.00 0.00 0.00 0.00 0.00 0.00 0.00 0.00 0.00 0.00 0.00 0.00 0.00 0.00 0.00 0.00
0.01 0.01 0.01 0.01 0.00 0.01 0.01 0.02 0.04 0.05 0.05 0.06 0.05 0.04 0.04 0.03 0.03 0.02 0.02 0.01 0.01 0.01 0.00 0.00 0.00 0.00 0.00 0.00 0.00 0.00 0.00 0.00 0.00 0.00 0.00 0.00 0.00 0.00 0.00 0.00 0.00 0.00 0.00 0.00
0.00 0.00 0.00 0.00 0.00 0.01 0.01 0.02 0.02 0.03 0.04 0.05 0.05 0.04 0.03 0.03 0.03 0.02 0.02 0.01 0.01 0.01 0.01 0.01 0.00 0.00 0.00 0.00 0.00 0.00 0.00 0.00 0.00 0.00 0.00 0.00 0.00 0.00 0.00 0.00 0.00 0.00 0.00 0.00
0.00 0.00 0.00 0.01 0.01 0.01 0.01 0.01 0.01 0.02 0.02 0.02 0.02 0.02 0.02 0.03 0.03 0.03 0.02 0.02 0.02 0.02 0.01 0.01 0.01 0.00 0.00 0.00 0.00 0.00 0.00 0.00 0.00 0.00 0.00 0.00 0.00 0.00 0.00 0.01 0.01 0.01 0.01 0.01
0.01 0.01 0.01 0.01 0.01 0.01 0.01 0.01 0.01 0.01 0.01 0.01 0.01 0.02 0.02 0.02 0.02 0.02 0.01 0.01 0.01 0.01 0.01 0.01 0.01 0.01 0.00 0.00 0.00 0.00 0.00 0.00 0.00 0.00 0.00 0.00 0.00 0.00 0.00 0.01 0.01 0.01 0.01 0.01
0.02 0.01 0.01 0.01 0.01 0.01 0.00 0.00 0.00 0.00 0.00 0.01 0.01 0.01 0.01 0.01 0.01 0.01 0.01 0.01 0.01 0.01 0.01 0.00 0.00 0.00 0.00 0.00 0.00 0.00 0.00 0.00 0.00 0.00 0.00 0.00 0.00 0.00 0.01 0.01 0.01 0.01 0.01 0.01
0.01 0.01 0.01 0.01 0.00 0.00 0.00 0.00 0.00 0.00 0.00 0.00 0.01 0.02 0.02 0.01 0.01 0.01 0.01 0.01 0.01 0.02 0.02 0.01 0.00 0.00 0.00 0.00 0.00 0.00 0.00 0.00 0.00 0.00 0.00 0.00 0.01 0.01 0.01 0.01 0.01 0.01 0.01 0.01
0.01 0.00 0.00 0.00 0.00 0.00 0.00 0.00 0.00 0.00 0.00 0.00 0.00 0.00 0.00 0.00 0.00 0.00 0.01 0.02 0.02 0.02 0.02 0.00 0.00 0.00 0.00 0.00 0.00 0.00 0.00 0.00 0.00 0.00 0.00 0.00 0.00 0.00 0.00 0.00 0.01 0.01 0.01 0.01
0.02 0.01 0.00 0.00 0.00 0.00 0.00 0.00 0.00 0.00 0.00 0.00 0.00 0.00 0.00 0.00 0.00 0.01 0.02 0.04 0.03 0.01 0.01 0.00 0.00 0.00 0.00 0.00 0.00 0.00 0.00 0.00 0.00 0.00 0.00 0.00 0.00 0.00 0.00 0.01 0.01 0.01 0.01 0.01
0.01 0.01 0.00 0.00 0.00 0.00 0.00 0.00 0.00 0.00 0.00 0.00 0.00 0.00 0.00 0.01 0.01 0.03 0.03 0.03 0.02 0.01 0.00 0.00 0.00 0.00 0.00 0.00 0.00 0.00 0.00 0.00 0.00 0.00 0.00 0.00 0.00 0.01 0.01 0.01 0.01 0.01 0.01 0.01
0.00 0.00 0.00 0.00 0.00 0.00 0.00 0.00 0.00 0.00 0.00 0.00 0.00 0.00 0.01 0.01 0.02 0.03 0.03 0.02 0.01 0.00 0.00 0.00 0.00 0.00 0.00 0.00 0.00 0.00 0.00 0.00 0.00 0.00 0.00 0.00 0.00 0.01 0.01 0.01 0.01 0.01 0.01 0.01
0.01 0.01 0.00 0.00 0.00 0.00 0.00 0.00 0.01 0.01 0.01 0.01 0.01 0.01 0.01 0.03 0.03 0.01 0.01 0.01 0.01 0.01 0.00 0.00 0.00 0.00 0.00 0.00 0.00 0.00 0.00 0.00 0.00 0.00 0.00 0.00 0.00 0.00 0.01 0.01 0.01 0.01 0.01 0.01
0.02 0.01 0.00 0.00 0.00 0.01 0.01 0.02 0.02 0.03 0.02 0.03 0.02 0.01 0.01 0.02 0.03 0.03 0.03 0.02 0.01 0.00 0.00 0.00 0.00 0.00 0.00 0.00 0.00 0.00 0.00 0.00 0.00 0.00 0.00 0.00 0.00 0.00 0.01 0.01 0.01 0.01 0.01 0.01
0.01 0.01 0.01 0.01 0.01 0.02 0.02 0.02 0.04 0.05 0.04 0.04 0.03 0.03 0.02 0.02 0.03 0.04 0.04 0.03 0.01 0.01 0.00 0.00 0.00 0.00 0.00 0.00 0.00 0.00 0.00 0.00 0.00 0.00 0.00 0.00 0.01 0.01 0.01 0.01 0.01 0.01 0.01 0.01
0.01 0.01 0.02 0.03 0.02 0.02 0.02 0.02 0.03 0.04 0.04 0.05 0.05 0.05 0.04 0.04 0.04 0.03 0.03 0.02 0.02 0.02 0.01 0.00 0.00 0.00 0.00 0.00 0.00 0.00 0.00 0.00 0.00 0.00 0.00 0.00 0.00 0.00 0.00 0.01 0.01 0.01 0.01 0.01
MSLP
1004.81 1005.15 1005.47 1005.75 1005.99 1006.17 1006.29 1006.34 1006.32 1006.23 1006.09 1005.93 1005.77 1005.64 1005.57 1005.57 1005.65 1005.81 1006.03 1006.30 1006.61 1006.93 1007.28 1007.64 1008.02 1008.42 1008.86 1009.31 1009.78 1010.25 1010.70 1011.12 1011.48 1011.79 1012.04 1012.26 1012.47 1012.67 1012.90 1013.16 1013.46 1013.80 1014.15 1014.51
1004.91 1005.09 1005.20 1005.25 1005.25 1005.23 1005.20 1005.19 1005.20 1005.23 1005.30 1005.40 1005.52 1005.64 1005.78 1005.91 1006.04 1006.16 1006.29 1006.42 1006.58 1006.79 1007.05 1007.37 1007.76 1008.22 1008.73 1009.27 1009.82 1010.34 1010.81 1011.21 1011.54 1011.80 1012.00 1012.16 1012.32 1012.49 1012.70 1012.95 1013.24 1013.56 1013.88 1014.19
1005.21 1005.21 1005.10 1004.91 1004.67 1004.44 1004.27 1004.20 1004.24 1004.41 1004.69 1005.05 1005.45 1005.85 1006.22 1006.52 1006.74 1006.88 1006.96 1007.01 1007.07 1007.17 1007.36 1007.65 1008.04 1008.53 1009.10 1009.70 1010.30 1010.85 1011.32 1011.70 1011.98 1012.17 1012.29 1012.38 1012.47 1012.59 1012.75 1012.96 1013.21 1013.49 1013.78 1014.04
1005.75 1005.56 1005.22 1004.79 1004.31 1003.88 1003.57 1003.43 1003.49 1003.77 1004.23 1004.83 1005.51 1006.19 1006.80 1007.29 1007.65 1007.86 1007.96 1007.98 1007.98 1008.03 1008.17 1008.43 1008.82 1009.32 1009.92 1010.55 1011.17 1011.73 1012.18 1012.52 1012.73 1012.84 1012.88 1012.88 1012.89 1012.93 1013.03 1013.19 1013.40 1013.63 1013.88 1014.10
1006.50 1006.13 1005.57 1004.90 1004.21 1003.58 1003.12 1002.89 1002.95 1003.30 1003.90 1004.70 1005.61 1006.53 1007.38 1008.08 1008.60 1008.93 1009.10 1009.15 1009.15 1009.19 1009.30 1009.55 1009.93 1010.44 1011.04 1011.68 1012.29 1012.83 1013.25 1013.54 1013.68 1013.71 1013.66 1013.58 1013.50 1013.47 1013.50 1013.60 1013.77 1013.96 1014.17 1014.36
1007.36 1006.82 1006.08 1005.21 1004.31 1003.51 1002.90 1002.58 1002.60 1002.97 1003.66 1004.60 1005.68 1006.81 1007.86 1008.76 1009.45 1009.92 1010.20 1010.32 1010.38 1010.43 1010.56 1010.80 1011.18 1011.68 1012.26 1012.89 1013.48 1013.98 1014.36 1014.59 1014.67 1014.63 1014.51 1014.35 1014.20 1014.11 1014.08 1014.14 1014.26 1014.43 1014.62 1014.79
1008.18 1007.51 1006.62 1005.60 1004.55 1003.60 1002.88 1002.47 1002.43 1002.79 1003.50 1004.51 1005.71 1006.97 1008.18 1009.24 1010.09 1010.71 1011.11 1011.34 1011.47 1011.58 1011.74 1012.00 1012.37 1012.85 1013.42 1014.01 1014.56 1015.02 1015.35 1015.53 1015.56 1015.47 1015.29 1015.08 1014.88 1014.74 1014.68 1014.70 1014.81 1014.96 1015.14 1015.32
1008.79 1008.04 1007.07 1005.97 1004.84 1003.81 1003.01 1002.53 1002.44 1002.76 1003.46 1004.48 1005.72 1007.05 1008.35 1009.53 1010.50 1011.25 1011.78 1012.12 1012.35 1012.53 1012.73 1013.00 1013.37 1013.83 1014.36 1014.91 1015.41 1015.83 1016.11 1016.25 1016.24 1016.11 1015.90 1015.65 1015.43 1015.27 1015.19 1015.21 1015.31 1015.47 1015.66 1015.85
1009.05 1008.29 1007.33 1006.23 1005.12 1004.09 1003.28 1002.78 1002.65 1002.93 1003.60 1004.58 1005.81 1007.14 1008.47 1009.70 1010.75 1011.59 1012.22 1012.66 1012.97 1013.22 1013.47 1013.76 1014.12 1014.56 1015.04 1015.53 1015.98 1016.34 1016.58 1016.67 1016.64 1016.49 1016.26 1016.01 1015.79 1015.62 1015.55 1015.57 1015.68 1015.85 1016.07 1016.28
1008.92 1008.23 1007.36 1006.37 1005.36 1004.43 1003.69 1003.23 1003.11 1003.37 1003.99 1004.91 1006.07 1007.35 1008.65 1009.87 1010.95 1011.84 1012.52 1013.03 1013.41 1013.71 1013.99 1014.29 1014.64 1015.03 1015.46 1015.88 1016.27 1016.57 1016.75 1016.81 1016.75 1016.59 1016.37 1016.13 1015.92 1015.77 1015.71 1015.75 1015.88 1016.07 1016.31 1016.55
1008.46 1007.91 1007.21 1006.42 1005.60 1004.86 1004.27 1003.92 1003.86 1004.12 1004.70 1005.55 1006.62 1007.80 1009.02 1010.18 1011.22 1012.09 1012.80 1013.34 1013.75 1014.08 1014.37 1014.66 1014.98 1015.32 1015.68 1016.03 1016.34 1016.56 1016.69 1016.71 1016.63 1016.47 1016.25 1016.03 1015.84 1015.72 1015.69 1015.75 1015.90 1016.12 1016.37 1016.62
1007.83 1007.47 1007.00 1006.47 1005.92 1005.42 1005.05 1004.87 1004.91 1005.21 1005.76 1006.54 1007.49 1008.55 1009.64 1010.69 1011.65 1012.47 1013.14 1013.67 1014.09 1014.42 1014.70 1014.97 1015.24 1015.52 1015.80 1016.06 1016.28 1016.43 1016.50 1016.47 1016.37 1016.20 1015.99 1015.79 1015.63 1015.54 1015.54 1015.62 1015.79 1016.03 1016.29 1016.55
1007.25 1007.10 1006.89 1006.64 1006.39 1006.18 1006.05 1006.06 1006.22 1006.58 1007.12 1007.82 1008.66 1009.58 1010.52 1011.43 1012.26 1012.99 1013.60 1014.09 1014.48 1014.79 1015.05 1015.28 1015.49 1015.70 1015.90 1016.07 1016.20 1016.27 1016.27 1016.20 1016.07 1015.89 1015.70 1015.53 1015.40 1015.34 1015.36 1015.47 1015.66 1015.90 1016.16 1016.41
1006.94 1006.98 1007.01 1007.03 1007.06 1007.12 1007.24 1007.43 1007.72 1008.13 1008.66 1009.29 1010.01 1010.77 1011.55 1012.31 1013.00 1013.62 1014.15 1014.58 1014.93 1015.20 1015.43 1015.62 1015.78 1015.93 1016.05 1016.13 1016.18 1016.17 1016.11 1016.00 1015.84 1015.66 1015.49 1015.34 1015.24 1015.22 1015.27 1015.40 1015.60 1015.83 1016.08 1016.31
1007.04 1007.23 1007.45 1007.69 1007.95 1008.23 1008.54 1008.89 1009.28 1009.73 1010.23 1010.78 1011.37 1011.99 1012.61 1013.21 1013.77 1014.28 1014.72 1015.09 1015.40 1015.64 1015.84 1016.00 1016.12 1016.21 1016.27 1016.28 1016.26 1016.19 1016.08 1015.93 1015.77 1015.59 1015.44 1015.33 1015.27 1015.28 1015.36 1015.51 1015.70 1015.93 1016.15 1016.33
1007.61 1007.88 1008.22 1008.59 1009.00 1009.43 1009.87 1010.31 1010.75 1011.20 1011.66 1012.12 1012.60 1013.08 1013.55 1014.02 1014.46 1014.86 1015.23 1015.56 1015.83 1016.06 1016.25 1016.39 1016.49 1016.55 1016.57 1016.54 1016.47 1016.36 1016.22 1016.06 1015.89 1015.74 1015.62 1015.54 1015.52 1015.56 1015.67 1015.83 1016.02 1016.22 1016.40 1016.54
1008.57 1008.86 1009.22 1009.65 1010.12 1010.61 1011.09 1011.56 1012.00 1012.42 1012.81 1013.19 1013.55 1013.91 1014.26 1014.62 1014.96 1015.30 1015.62 1015.92 1016.19 1016.43 1016.63 1016.78 1016.88 1016.94 1016.94 1016.90 1016.81 1016.68 1016.54 1016.38 1016.23 1016.10 1016.01 1015.97 1015.99 1016.07 1016.19 1016.35 1016.53 1016.70 1016.83 1016.91
1009.76 1010.00 1010.34 1010.74 1011.18 1011.65 1012.11 1012.55 1012.95 1013.31 1013.62 1013.91 1014.18 1014.44 1014.70 1014.97 1015.26 1015.56 1015.86 1016.17 1016.46 1016.73 1016.96 1017.15 1017.28 1017.36 1017.37 1017.34 1017.25 1017.14 1017.00 1016.86 1016.74 1016.64 1016.59 1016.59 1016.63 1016.73 1016.86 1017.01 1017.16 1017.29 1017.36 1017.37
1011.00 1011.15 1011.40 1011.72 1012.09 1012.48 1012.87 1013.23 1013.56 1013.84 1014.08 1014.29 1014.48 1014.67 1014.88 1015.11 1015.37 1015.67 1015.99 1016.32 1016.66 1016.98 1017.26 1017.50 1017.68 1017.79 1017.84 1017.83 1017.77 1017.67 1017.56 1017.45 1017.35 1017.28 1017.26 1017.28 1017.35 1017.45 1017.57 1017.70 1017.80 1017.87 1017.88 1017.81
1012.09 1012.14 1012.29 1012.50 1012.77 1013.07 1013.36 1013.64 1013.89 1014.09 1014.27 1014.41 1014.56 1014.71 1014.89 1015.11 1015.38 1015.70 1016.06 1016.44 1016.83 1017.20 1017.55 1017.84 1018.07 1018.23 1018.32 1018.34 1018.31 1018.24 1018.15 1018.06 1017.98 1017.93 1017.93 1017.96 1018.02 1018.11 1018.20 1018.29 1018.34 1018.34 1018.28 1018.13
1012.92 1012.89 1012.94 1013.06 1013.23 1013.44 1013.65 1013.85 1014.03 1014.18 1014.30 1014.42 1014.53 1014.68 1014.86 1015.10 1015.39 1015.74 1016.14 1016.57 1017.01 1017.44 1017.84 1018.18 1018.45 1018.65 1018.77 1018.82 1018.81 1018.77 1018.69 1018.62 1018.55 1018.51 1018.50 1018.52 1018.56 1018.62 1018.67 1018.70 1018.69 1018.62 1018.49 1018.27
1013.47 1013.39 1013.37 1013.43 1013.53 1013.67 1013.82 1013.97 1014.10 1014.21 1014.32 1014.42 1014.54 1014.69 1014.89 1015.15 1015.48 1015.86 1016.30 1016.76 1017.24 1017.71 1018.14 1018.51 1018.81 1019.03 1019.17 1019.24 1019.25 1019.21 1019.14 1019.07 1019.00 1018.95 1018.92 1018.92 1018.92 1018.93 1018.93 1018.90 1018.83 1018.70 1018.49 1018.22
1013.79 1013.69 1013.65 1013.68 1013.75 1013.85 1013.97 1014.10 1014.21 1014.31 1014.42 1014.53 1014.66 1014.83 1015.05 1015.34 1015.69 1016.09 1016.55 1017.03 1017.52 1018.00 1018.43 1018.81 1019.11 1019.34 1019.49 1019.56 1019.56 1019.53 1019.46 1019.38 1019.30 1019.23 1019.18 1019.14 1019.11 1019.07 1019.02 1018.93 1018.80 1018.61 1018.36 1018.04
1013.97 1013.89 1013.87 1013.90 1013.97 1014.08 1014.20 1014.32 1014.44 1014.55 1014.67 1014.79 1014.95 1015.14 1015.38 1015.68 1016.03 1016.44 1016.88 1017.36 1017.83 1018.28 1018.70 1019.05 1019.34 1019.55 1019.68 1019.74 1019.75 1019.71 1019.63 1019.55 1019.46 1019.38 1019.30 1019.23 1019.17 1019.09 1018.99 1018.86 1018.69 1018.46 1018.18 1017.84
1014.13 1014.09 1014.11 1014.18 1014.28 1014.40 1014.54 1014.68 1014.81 1014.95 1015.08 1015.23 1015.40 1015.60 1015.85 1016.14 1016.48 1016.86 1017.28 1017.71 1018.13 1018.54 1018.90 1019.21 1019.46 1019.64 1019.75 1019.80 1019.80 1019.75 1019.69 1019.60 1019.52 1019.43 1019.35 1019.26 1019.17 1019.07 1018.95 1018.79 1018.59 1018.35 1018.06 1017.72
1014.36 1014.38 1014.46 1014.56 1014.70 1014.85 1015.02 1015.18 1015.33 1015.49 1015.64 1015.80 1015.98 1016.19 1016.43 1016.70 1017.01 1017.34 1017.70 1018.06 1018.41 1018.74 1019.04 1019.29 1019.48 1019.62 1019.71 1019.74 1019.74 1019.71 1019.65 1019.59 1019.52 1019.45 1019.38 1019.30 1019.21 1019.11 1018.98 1018.82 1018.62 1018.38 1018.09 1017.76
1014.71 1014.79 1014.92 1015.07 1015.24 1015.42 1015.60 1015.78 1015.96 1016.13 1016.30 1016.47 1016.65 1016.85 1017.07 1017.31 1017.56 1017.83 1018.11 1018.39 1018.65 1018.90 1019.11 1019.29 1019.42 1019.52 1019.58 1019.61 1019.61 1019.60 1019.58 1019.56 1019.53 1019.50 1019.46 1019.42 1019.35 1019.27 1019.16 1019.01 1018.82 1018.59 1018.32 1018.00
Thickness
5792 5790 5781 5771 5772 5782 5783 5785 5777 5777 5773 5771 5774 5774 5777 5781 5783 5782 5779 5779 5777 5773 5770 5767 5764 5763 5760 5757 5755 5754 5749 5743 5741 5739 5737 5735 5732 5730 5728 5726 5724 5722 5720 5718
5782 5794 5789 5779 5785 5787 5789 5791 5789 5786 5773 5779 5778 5775 5775 5776 5775 5773 5772 5772 5773 5771 5768 5764 5762 5759 5756 5754 5753 5750 5746 5742 5740 5736 5733 5730 5728 5726 5724 5722 5719 5718 5715 5713
5766 5784 5783 5772 5788 5792 5790 5795 5790 5776 5773 5775 5767 5764 5766 5767 5767 5765 5764 5763 5762 5761 5760 5759 5757 5755 5752 5749 5748 5743 5738 5735 5732 5729 5725 5722 5721 5719 5716 5714 5712 5711 5709 5707
5759 5762 5742 5777 5805 5801 5794 5791 5791 5782 5776 5770 5761 5758 5759 5761 5757 5754 5752 5752 5751 5750 5750 5749 5748 5745 5743 5740 5737 5733 5727 5724 5723 5721 5716 5713 5711 5709 5707 5705 5702 5700 5699 5697
5747 5746 5751 5773 5784 5782 5775 5772 5782 5776 5768 5761 5756 5752 5747 5750 5749 5744 5742 5740 5739 5739 5737 5734 5732 5731 5727 5724 5720 5716 5711 5708 5707 5706 5704 5701 5699 5697 5696 5694 5692 5690 5689 5687
5738 5735 5729 5750 5767 5776 5768 5749 5771 5771 5763 5756 5749 5734 5727 5736 5736 5733 5731 5729 5726 5724 5722 5717 5715 5714 5711 5706 5703 5699 5696 5692 5690 5689 5687 5685 5684 5684 5682 5681 5680 5678 5676 5675
5737 5735 5738 5749 5757 5758 5730 5734 5764 5768 5762 5755 5747 5737 5730 5728 5723 5720 5717 5715 5712 5709 5704 5701 5699 5697 5693 5690 5687 5684 5682 5679 5675 5674 5673 5671 5670 5669 5668 5668 5666 5665 5663 5663
5734 5727 5718 5739 5744 5733 5733 5751 5760 5759 5754 5745 5736 5728 5722 5717 5712 5708 5704 5701 5699 5694 5690 5687 5685 5682 5677 5673 5672 5671 5668 5665 5662 5661 5661 5660 5657 5656 5656 5655 5653 5652 5651 5649
5713 5715 5724 5734 5730 5735 5743 5743 5750 5749 5743 5736 5726 5718 5711 5705 5701 5697 5693 5688 5685 5680 5676 5673 5671 5668 5663 5660 5659 5657 5654 5652 5651 5649 5648 5646 5645 5644 5644 5642 5640 5638 5636 5633
5701 5709 5717 5725 5730 5730 5735 5741 5745 5742 5736 5728 5717 5709 5701 5695 5689 5684 5679 5675 5671 5667 5662 5658 5656 5652 5649 5647 5646 5643 5641 5640 5639 5638 5637 5635 5633 5633 5631 5629 5625 5621 5618 5615
5698 5703 5709 5711 5717 5723 5730 5733 5732 5730 5725 5717 5708 5698 5690 5682 5677 5673 5668 5664 5659 5654 5650 5646 5644 5641 5640 5637 5634 5630 5629 5628 5628 5628 5627 5625 5623 5622 5620 5618 5614 5608 5605 5601
5689 5697 5698 5700 5713 5721 5719 5717 5717 5714 5708 5702 5696 5686 5679 5671 5666 5662 5657 5652 5648 5644 5641 5637 5634 5630 5628 5625 5622 5618 5616 5616 5616 5616 5615 5614 5612 5611 5609 5606 5602 5598 5593 5587
5700 5703 5704 5705 5709 5712 5708 5705 5702 5698 5692 5685 5680 5674 5667 5659 5654 5649 5645 5641 5636 5632 5629 5626 5623 5619 5616 5613 5610 5606 5603 5602 5603 5602 5601 5600 5599 5597 5594 5592 5587 5582 5576 5570
5700 5699 5694 5695 5695 5697 5694 5691 5687 5681 5676 5670 5664 5658 5652 5646 5640 5636 5631 5628 5625 5621 5618 5614 5610 5607 5604 5601 5598 5594 5593 5592 5590 5588 5587 5586 5584 5582 5579 5575 5571 5566 5559 5552
5691 5691 5687 5685 5684 5682 5679 5675 5669 5663 5658 5653 5649 5643 5638 5632 5627 5623 5619 5616 5613 5609 5605 5601 5597 5593 5591 5588 5585 5582 5581 5580 5577 5575 5573 5572 5569 5566 5562 5557 5552 5547 5541 5534
5680 5679 5676 5671 5668 5665 5662 5657 5651 5646 5642 5637 5632 5628 5624 5620 5615 5611 5608 5605 5600 5595 5591 5588 5584 5581 5579 5575 5571 5569 5568 5565 5563 5561 5559 5557 5553 5547 5542 5537 5532 5526 5519 5513
5664 5659 5658 5655 5652 5649 5646 5642 5638 5633 5628 5623 5619 5616 5612 5607 5603 5599 5596 5593 5589 5584 5581 5576 5572 5569 5566 5562 5558 5556 5555 5553 5549 5546 5543 5537 5532 5527 5522 5516 5510 5504 5498 5492
5657 5652 5649 5645 5641 5636 5632 5629 5625 5620 5616 5612 5609 5605 5601 5597 5593 5589 5586 5583 5578 5573 5569 5564 5560 5557 5553 5548 5543 5541 5540 5537 5533 5529 5524 5518 5511 5507 5502 5496 5491 5485 5481 5476
5641 5638 5635 5631 5628 5624 5620 5617 5614 5611 5608 5604 5600 5596 5592 5589 5585 5581 5578 5573 5566 5560 5555 5551 5546 5543 5539 5533 5528 5527 5525 5521 5516 5511 5506 5499 5495 5490 5484 5478 5473 5468 5464 5461
5626 5624 5621 5618 5615 5612 5608 5606 5604 5601 5598 5595 5591 5586 5582 5579 5576 5571 5566 5559 5553 5548 5543 5537 5534 5529 5524 5518 5512 5512 5509 5504 5499 5493 5488 5483 5477 5473 5468 5463 5458 5454 5451 5448
5611 5609 5607 5605 5603 5601 5599 5596 5594 5590 5587 5584 5580 5576 5572 5569 5565 5560 5554 5546 5539 5533 5529 5523 5519 5512 5508 5501 5498 5498 5493 5487 5482 5477 5472 5467 5462 5458 5454 5449 5446 5443 5441 5438
5599 5597 5596 5594 5592 5590 5589 5587 5584 5580 5576 5572 5569 5565 5561 5556 5551 5545 5539 5532 5525 5517 5516 5510 5503 5494 5490 5486 5487 5483 5477 5471 5466 5462 5458 5453 5450 5446 5442 5439 5436 5434 5432 5430
5587 5586 5584 5582 5580 5579 5578 5576 5572 5568 5564 5560 5556 5553 5549 5544 5539 5533 5525 5518 5513 5504 5500 5492 5484 5480 5475 5476 5474 5469 5463 5457 5452 5449 5446 5443 5440 5437 5434 5431 5429 5427 5425 5424
5575 5574 5572 5571 5570 5567 5563 5562 5559 5555 5552 5548 5545 5541 5537 5531 5526 5519 5510 5500 5495 5491 5485 5476 5471 5468 5464 5464 5461 5456 5451 5446 5442 5440 5437 5434 5431 5429 5427 5425 5424 5422 5421 5420
5564 5563 5561 5559 5556 5555 5552 5550 5547 5544 5540 5536 5531 5528 5524 5519 5512 5505 5497 5490 5482 5479 5475 5467 5462 5458 5456 5454 5449 5445 5441 5436 5433 5430 5428 5427 5425 5423 5421 5420 5418 5417 5416 5415
5555 5553 5551 5548 5546 5543 5542 5539 5535 5531 5528 5524 5519 5514 5510 5504 5498 5493 5487 5481 5476 5469 5467 5461 5457 5451 5449 5445 5441 5437 5434 5431 5428 5426 5423 5420 5418 5417 5415 5414 5412 5411 5410 5409
5546 5544 5540 5538 5536 5533 5531 5527 5523 5519 5515 5512 5507 5502 5498 5493 5489 5483 5479 5473 5468 5463 5459 5454 5451 5446 5442 5438 5435 5431 5428 5425 5422 5419 5416 5414 5412 5410 5409 5407 5406 5405 5403 5403